Norwegian Sea — C6DM2 — position and weather

sailwx.info

Track history (hours):
 
Tides and Currents Weather Stations Pressure Air Temp Water Temp Dewpoint Dewpoint Depression Visibility Wind Speed Wind Dir Waves Ship Positions

Norwegian Sea

Operator: Norwegian Cruise Line

Last reported at 2017-Jul-27 00:00 UTC. Time now 2017-Jul-27 00:35 UTC.
Position N 07°18' E 098°36'.

Length 216 m; draft 7.2 m.

Type: Passenger vessel. MMSI: 308188000.

Wind from 230 at 7 knots

Barometer 1008.0 mb
Air temperature 29.0 ° C
Visibility: greater than 5.4 NM
Dewpoint 26.3 ° C
Water temperature 30.0 ° C

Date/timePositionNaut miles runAvg speedWind from/ knotsBaromVisibWave heightAir tempDewpointWater temp
2017-Jul-27 00:00N 07°18' E 098°36'8614.4 230 / 71008.0 5.4 29.026.330.0
2017-Jul-26 18:00N 06°06' E 099°24'3414.1 290 / 3 30.026.031.0
2017-Jul-26 15:34N 05°47' E 099°53'115.8
2017-Jul-26 15:29N 05°46' E 099°54'915.2
2017-Jul-26 14:54N 05°43' E 100°02'1213.0
2017-Jul-26 13:57N 05°36' E 100°12'613.0
2017-Jul-26 13:30N 05°32' E 100°17'613.3
2017-Jul-26 13:01N 05°27' E 100°21'2 2.8
2017-Jul-26 12:19N 05°25' E 100°21'3 9.5
2017-Jul-26 12:00N 05°24' E 100°18'337.5 210 / 131007.0 2.2 31.027.0
2017-Jul-26 11:55N 05°25' E 100°21'0 0.0
2017-Jul-26 11:19N 05°25' E 100°21'0 0.0
2017-Jul-26 10:43N 05°25' E 100°21'0 0.0
2017-Jul-26 10:28N 05°25' E 100°21'0 0.0
2017-Jul-26 09:57N 05°25' E 100°21'0 0.0
2017-Jul-26 09:27N 05°25' E 100°21'0 0.0
2017-Jul-26 08:51N 05°25' E 100°21'0 0.0
2017-Jul-26 08:27N 05°25' E 100°21'0 0.0
2017-Jul-26 07:57N 05°25' E 100°21'0 0.0
2017-Jul-26 07:27N 05°25' E 100°21'0 0.0
2017-Jul-26 07:00N 05°25' E 100°21'0 0.0
2017-Jul-26 06:27N 05°25' E 100°21'3 6.7
2017-Jul-26 06:00N 05°24' E 100°18'361.3 180 / 101008.0 5.4 32.029.430.0
2017-Jul-26 05:57N 05°25' E 100°21'0 0.0
2017-Jul-26 05:27N 05°25' E 100°21'0 0.0
2017-Jul-26 04:57N 05°25' E 100°21'0 0.0
2017-Jul-26 04:27N 05°25' E 100°21'0 0.0
2017-Jul-26 03:57N 05°25' E 100°21'1 2.6
2017-Jul-26 03:31N 05°26' E 100°21'610.9
2017-Jul-26 03:00N 05°31' E 100°18'612.0
2017-Jul-26 02:29N 05°35' E 100°13'912.2
2017-Jul-26 01:47N 05°39' E 100°06'1112.1
2017-Jul-26 00:54N 05°45' E 099°57'1516.7
2017-Jul-26 00:00N 05°48' E 099°42'51 8.5 360 / 61007.0 5.4 28.025.330.0
2017-Jul-25 18:00N 06°24' E 099°06'7913.2 250 / 6 29.026.331.0
2017-Jul-25 12:00N 07°42' E 098°54'13 2.2 310 / 91007.0 2.2 27.025.6
2017-Jul-25 06:00N 07°54' E 098°48'13 2.2 290 / 181008.0 5.4 30.027.430.0
2017-Jul-25 00:00N 07°42' E 098°42'13 2.2 300 / 161007.0 5.4 29.026.330.0
2017-Jul-24 18:00N 07°36' E 098°30'13 2.2 280 / 16 29.024.931.0
2017-Jul-24 12:00N 07°48' E 098°24'46 3.8 250 / 51007.0 5.4 28.025.329.0
2017-Jul-24 00:00N 07°06' E 098°42'48 8.0 290 / 61009.0 5.4 29.026.330.0
2017-Jul-23 18:00N 06°24' E 099°06'6410.6 040 / 2 29.024.931.0
2017-Jul-23 12:00N 05°42' E 099°54'645.0 210 / 91008.0 2.2 31.025.6
2017-Jul-23 11:51N 05°48' E 099°53'2013.3
2017-Jul-23 10:23N 05°37' E 100°09'612.7
2017-Jul-23 09:57N 05°35' E 100°14'612.7
2017-Jul-23 09:30N 05°31' E 100°19'612.1
2017-Jul-23 09:00N 05°26' E 100°21'0 0.7
2017-Jul-23 08:26N 05°25' E 100°21'0 0.0
2017-Jul-23 07:56N 05°25' E 100°21'0 0.0
2017-Jul-23 07:27N 05°25' E 100°21'0 0.2
2017-Jul-23 06:57N 05°25' E 100°21'0 0.2
2017-Jul-23 06:28N 05°25' E 100°21'3 6.3
2017-Jul-23 06:00N 05°24' E 100°18'372.2 200 / 121009.0 5.4 32.029.430.0
2017-Jul-23 05:57N 05°25' E 100°21'0 0.0
2017-Jul-23 05:27N 05°25' E 100°21'0 0.0
2017-Jul-23 05:00N 05°25' E 100°21'0 0.0
2017-Jul-23 04:26N 05°25' E 100°21'0 0.0
2017-Jul-23 03:56N 05°25' E 100°21'0 0.0
2017-Jul-23 03:26N 05°25' E 100°21'0 0.0
2017-Jul-23 02:56N 05°25' E 100°21'0 0.0
2017-Jul-23 02:20N 05°25' E 100°21'0 0.6
2017-Jul-23 02:00N 05°25' E 100°21'510.3
2017-Jul-23 01:30N 05°30' E 100°20'510.4
2017-Jul-23 01:00N 05°33' E 100°16'4 7.4
2017-Jul-23 00:29N 05°36' E 100°12'5 9.8
2017-Jul-23 00:00N 05°37' E 100°08'112144.7
2017-Jul-23 00:00N 05°30' E 100°00'5 5.1 350 / 61010.0 5.4 29.026.330.0
2017-Jul-22 22:58N 05°34' E 100°04'1 0.2
2017-Jul-22 18:58N 05°35' E 100°04'6 6.1
2017-Jul-22 18:00N 05°30' E 100°00'719.9 100 / 5 29.026.331.0
2017-Jul-22 17:40N 05°35' E 100°04'0 0.3
2017-Jul-22 17:25N 05°35' E 100°04'0 0.5
2017-Jul-22 17:00N 05°35' E 100°04'1 0.4
2017-Jul-22 15:42N 05°36' E 100°05'0 0.9
2017-Jul-22 15:18N 05°36' E 100°05'2 5.4
2017-Jul-22 15:00N 05°36' E 100°07'9 8.8
2017-Jul-22 13:59N 05°34' E 100°15'611.7
2017-Jul-22 13:30N 05°30' E 100°20'510.4
2017-Jul-22 13:00N 05°25' E 100°21'0 0.2
2017-Jul-22 12:28N 05°25' E 100°21'3 6.3
2017-Jul-22 12:00N 05°24' E 100°18'3126.9 230 / 131009.0 2.2 30.026.0
2017-Jul-22 11:58N 05°25' E 100°21'0 0.0
2017-Jul-22 06:46N 05°25' E 100°21'3 3.9
2017-Jul-22 06:00N 05°24' E 100°18'3 4.1 220 / 191010.0 1.1 33.027.8
2017-Jul-22 05:16N 05°25' E 100°21'0 0.0
2017-Jul-22 04:18N 05°25' E 100°21'0 0.0
2017-Jul-22 03:48N 05°25' E 100°21'0 0.0
2017-Jul-22 03:18N 05°25' E 100°21'0 0.0
2017-Jul-22 03:00N 05°25' E 100°21'1 2.2
2017-Jul-22 02:28N 05°26' E 100°21'611.9
2017-Jul-22 02:00N 05°31' E 100°18'611.8
2017-Jul-22 01:29N 05°35' E 100°13'612.4
2017-Jul-22 01:00N 05°36' E 100°08'2 4.6
2017-Jul-22 00:30N 05°36' E 100°05'815.3
2017-Jul-22 00:00N 05°30' E 100°00'717.1 120 / 81008.0 5.4 29.026.330.0
2017-Jul-21 23:35N 05°35' E 100°05'1 1.3
2017-Jul-21 23:12N 05°34' E 100°05'1 0.3
2017-Jul-21 18:38N 05°33' E 100°05'6 9.0
2017-Jul-21 18:00N 05°30' E 100°00'8 3.0 310 / 8 29.026.331.0
2017-Jul-21 15:24N 05°36' E 100°04'2 4.4
2017-Jul-21 15:00N 05°37' E 100°06'6 7.7
2017-Jul-21 14:13N 05°36' E 100°12'312.0
2017-Jul-21 14:00N 05°34' E 100°14'611.6
2017-Jul-21 13:30N 05°31' E 100°19'611.1
2017-Jul-21 13:00N 05°26' E 100°21'0 0.9
2017-Jul-21 12:30N 05°25' E 100°21'0 0.0
2017-Jul-21 12:00N 05°25' E 100°21'3340.7
2017-Jul-21 12:00N 05°24' E 100°18'3 6.2 210 / 51009.0 2.2 31.029.7
2017-Jul-21 11:30N 05°25' E 100°21'0 0.0
2017-Jul-21 11:00N 05°25' E 100°21'0 0.0
2017-Jul-21 10:30N 05°25' E 100°21'0 0.0
2017-Jul-21 10:00N 05°25' E 100°21'0 0.0
2017-Jul-21 09:30N 05°25' E 100°21'0 0.0
2017-Jul-21 09:00N 05°25' E 100°21'0 0.0
2017-Jul-21 08:30N 05°25' E 100°21'0 0.0
2017-Jul-21 08:00N 05°25' E 100°21'0 0.0
2017-Jul-21 07:26N 05°25' E 100°21'0 0.0
2017-Jul-21 06:56N 05°25' E 100°21'0 0.0
2017-Jul-21 06:26N 05°25' E 100°21'3 6.9
2017-Jul-21 06:00N 05°24' E 100°18'351.9 220 / 81009.0 5.4 32.029.430.0
2017-Jul-21 05:56N 05°25' E 100°21'0 0.0
2017-Jul-21 05:27N 05°25' E 100°21'0 0.0
2017-Jul-21 04:55N 05°25' E 100°21'0 0.0
2017-Jul-21 04:25N 05°25' E 100°21'0 0.0
2017-Jul-21 03:56N 05°25' E 100°21'1 1.3
2017-Jul-21 03:30N 05°26' E 100°21'612.0
2017-Jul-21 03:01N 05°31' E 100°19'611.3
2017-Jul-21 02:31N 05°35' E 100°14'611.3
2017-Jul-21 02:00N 05°37' E 100°09'1411.7
2017-Jul-21 00:49N 05°45' E 099°57'1618.8
2017-Jul-21 00:00N 05°48' E 099°42'7212.0 230 / 71008.0 5.4 29.026.330.0
2017-Jul-20 18:00N 06°42' E 098°54'7212.1 280 / 14 28.028.031.0
2017-Jul-20 12:00N 07°48' E 098°24'0 0.0 290 / 141008.0 2.2 29.027.7
2017-Jul-20 06:00N 07°48' E 098°24'38 6.3 280 / 121009.0 5.4 32.029.430.0
2017-Jul-20 00:00N 07°12' E 098°36'8113.6 280 / 161008.0 5.4 29.026.329.0
2017-Jul-19 18:00N 06°06' E 099°24'4815.9 340 / 8 29.029.031.0
2017-Jul-19 15:00N 05°40' E 100°04'1113.3
2017-Jul-19 14:10N 05°35' E 100°14'212.0
2017-Jul-19 14:00N 05°34' E 100°15'611.4
2017-Jul-19 13:30N 05°30' E 100°20'5 9.6
2017-Jul-19 13:00N 05°25' E 100°21'0 0.0
2017-Jul-19 12:25N 05°25' E 100°21'3 7.2
2017-Jul-19 12:00N 05°24' E 100°18'337.9 170 / 51008.0 2.2 30.028.7
2017-Jul-19 11:55N 05°25' E 100°21'0 0.0
2017-Jul-19 11:25N 05°25' E 100°21'0 0.0
2017-Jul-19 10:55N 05°25' E 100°21'0 0.0
2017-Jul-19 10:25N 05°25' E 100°21'0 0.0
2017-Jul-19 09:49N 05°25' E 100°21'0 0.0
2017-Jul-19 09:25N 05°25' E 100°21'0 0.0
2017-Jul-19 08:55N 05°25' E 100°21'0 0.0
2017-Jul-19 08:25N 05°25' E 100°21'0 0.0
2017-Jul-19 07:55N 05°25' E 100°21'0 0.0
2017-Jul-19 07:25N 05°25' E 100°21'0 0.0
2017-Jul-19 06:55N 05°25' E 100°21'0 0.0
2017-Jul-19 06:25N 05°25' E 100°21'3 7.2
2017-Jul-19 06:00N 05°24' E 100°18'338.1 210 / 101009.0 5.4 32.029.430.0
2017-Jul-19 05:55N 05°25' E 100°21'0 0.0
2017-Jul-19 05:29N 05°25' E 100°21'0 0.0
2017-Jul-19 04:57N 05°25' E 100°21'0 0.0
2017-Jul-19 04:27N 05°25' E 100°21'0 0.0
2017-Jul-19 04:00N 05°25' E 100°21'1 1.9
2017-Jul-19 03:30N 05°26' E 100°21'611.2
2017-Jul-19 03:00N 05°31' E 100°19'611.6
2017-Jul-19 02:30N 05°35' E 100°14'510.4
2017-Jul-19 02:00N 05°37' E 100°09'4 8.6
2017-Jul-19 01:28N 05°40' E 100°06'11 8.2
2017-Jul-19 00:09N 05°46' E 099°56'1 8.5
2017-Jul-18 23:59N 05°46' E 099°55'7 7.3
2017-Jul-18 23:00N 05°48' E 099°48'6412.7 210 / 101009.0 5.4 28.026.728.0
2017-Jul-18 18:00N 06°30' E 099°00'6611.0 200 / 5 29.029.031.0
2017-Jul-18 12:00N 07°36' E 098°54'19 3.2 260 / 41009.0 5.4 28.028.029.0
2017-Jul-18 06:00N 07°54' E 098°48'8 1.4 180 / 51008.0 5.4 32.029.430.0
2017-Jul-18 00:00N 07°48' E 098°42'17 2.8 180 / 61008.0 5.4 30.027.430.0
2017-Jul-17 18:00N 07°36' E 098°30'13 1.1 230 / 14 29.029.031.0
2017-Jul-17 06:00N 07°48' E 098°24'38 6.3 260 / 101008.0 5.4 32.029.430.0
2017-Jul-17 00:00N 07°12' E 098°36'   220 / 111008.0 5.4 28.025.330.0
Track history (hours):
 
Tides and Currents Weather Stations Pressure Air Temp Water Temp Dewpoint Dewpoint Depression Visibility Wind Speed Wind Dir Waves Ship Positions

Norwegian Sea

Operator: Norwegian Cruise Line

Last reported at 2017-Jul-27 00:00 UTC. Time now 2017-Jul-27 00:35 UTC.
Position N 07°18' E 098°36'.

Length 216 m; draft 7.2 m.

Type: Passenger vessel. MMSI: 308188000.

Wind from 230 at 7 knots

Barometer 1008.0 mb
Air temperature 29.0 ° C
Visibility: greater than 5.4 NM
Dewpoint 26.3 ° C
Water temperature 30.0 ° C

Date/timePositionNaut miles runAvg speedWind from/ knotsBaromVisibWave heightAir tempDewpointWater temp
2017-Jul-27 00:00N 07°18' E 098°36'8614.4 230 / 71008.0 5.4 29.026.330.0
2017-Jul-26 18:00N 06°06' E 099°24'3414.1 290 / 3 30.026.031.0
2017-Jul-26 15:34N 05°47' E 099°53'115.8
2017-Jul-26 15:29N 05°46' E 099°54'915.2
2017-Jul-26 14:54N 05°43' E 100°02'1213.0
2017-Jul-26 13:57N 05°36' E 100°12'613.0
2017-Jul-26 13:30N 05°32' E 100°17'613.3
2017-Jul-26 13:01N 05°27' E 100°21'2 2.8
2017-Jul-26 12:19N 05°25' E 100°21'3 9.5
2017-Jul-26 12:00N 05°24' E 100°18'337.5 210 / 131007.0 2.2 31.027.0
2017-Jul-26 11:55N 05°25' E 100°21'0 0.0
2017-Jul-26 11:19N 05°25' E 100°21'0 0.0
2017-Jul-26 10:43N 05°25' E 100°21'0 0.0
2017-Jul-26 10:28N 05°25' E 100°21'0 0.0
2017-Jul-26 09:57N 05°25' E 100°21'0 0.0
2017-Jul-26 09:27N 05°25' E 100°21'0 0.0
2017-Jul-26 08:51N 05°25' E 100°21'0 0.0
2017-Jul-26 08:27N 05°25' E 100°21'0 0.0
2017-Jul-26 07:57N 05°25' E 100°21'0 0.0
2017-Jul-26 07:27N 05°25' E 100°21'0 0.0
2017-Jul-26 07:00N 05°25' E 100°21'0 0.0
2017-Jul-26 06:27N 05°25' E 100°21'3 6.7
2017-Jul-26 06:00N 05°24' E 100°18'361.3 180 / 101008.0 5.4 32.029.430.0
2017-Jul-26 05:57N 05°25' E 100°21'0 0.0
2017-Jul-26 05:27N 05°25' E 100°21'0 0.0
2017-Jul-26 04:57N 05°25' E 100°21'0 0.0
2017-Jul-26 04:27N 05°25' E 100°21'0 0.0
2017-Jul-26 03:57N 05°25' E 100°21'1 2.6
2017-Jul-26 03:31N 05°26' E 100°21'610.9
2017-Jul-26 03:00N 05°31' E 100°18'612.0
2017-Jul-26 02:29N 05°35' E 100°13'912.2
2017-Jul-26 01:47N 05°39' E 100°06'1112.1
2017-Jul-26 00:54N 05°45' E 099°57'1516.7
2017-Jul-26 00:00N 05°48' E 099°42'51 8.5 360 / 61007.0 5.4 28.025.330.0
2017-Jul-25 18:00N 06°24' E 099°06'7913.2 250 / 6 29.026.331.0
2017-Jul-25 12:00N 07°42' E 098°54'13 2.2 310 / 91007.0 2.2 27.025.6
2017-Jul-25 06:00N 07°54' E 098°48'13 2.2 290 / 181008.0 5.4 30.027.430.0
2017-Jul-25 00:00N 07°42' E 098°42'13 2.2 300 / 161007.0 5.4 29.026.330.0
2017-Jul-24 18:00N 07°36' E 098°30'13 2.2 280 / 16 29.024.931.0
2017-Jul-24 12:00N 07°48' E 098°24'46 3.8 250 / 51007.0 5.4 28.025.329.0
2017-Jul-24 00:00N 07°06' E 098°42'48 8.0 290 / 61009.0 5.4 29.026.330.0
2017-Jul-23 18:00N 06°24' E 099°06'6410.6 040 / 2 29.024.931.0
2017-Jul-23 12:00N 05°42' E 099°54'645.0 210 / 91008.0 2.2 31.025.6
2017-Jul-23 11:51N 05°48' E 099°53'2013.3
2017-Jul-23 10:23N 05°37' E 100°09'612.7
2017-Jul-23 09:57N 05°35' E 100°14'612.7
2017-Jul-23 09:30N 05°31' E 100°19'612.1
2017-Jul-23 09:00N 05°26' E 100°21'0 0.7
2017-Jul-23 08:26N 05°25' E 100°21'0 0.0
2017-Jul-23 07:56N 05°25' E 100°21'0 0.0
2017-Jul-23 07:27N 05°25' E 100°21'0 0.2
2017-Jul-23 06:57N 05°25' E 100°21'0 0.2
2017-Jul-23 06:28N 05°25' E 100°21'3 6.3
2017-Jul-23 06:00N 05°24' E 100°18'372.2 200 / 121009.0 5.4 32.029.430.0
2017-Jul-23 05:57N 05°25' E 100°21'0 0.0
2017-Jul-23 05:27N 05°25' E 100°21'0 0.0
2017-Jul-23 05:00N 05°25' E 100°21'0 0.0
2017-Jul-23 04:26N 05°25' E 100°21'0 0.0
2017-Jul-23 03:56N 05°25' E 100°21'0 0.0
2017-Jul-23 03:26N 05°25' E 100°21'0 0.0
2017-Jul-23 02:56N 05°25' E 100°21'0 0.0
2017-Jul-23 02:20N 05°25' E 100°21'0 0.6
2017-Jul-23 02:00N 05°25' E 100°21'510.3
2017-Jul-23 01:30N 05°30' E 100°20'510.4
2017-Jul-23 01:00N 05°33' E 100°16'4 7.4
2017-Jul-23 00:29N 05°36' E 100°12'5 9.8
2017-Jul-23 00:00N 05°37' E 100°08'112144.7
2017-Jul-23 00:00N 05°30' E 100°00'5 5.1 350 / 61010.0 5.4 29.026.330.0
2017-Jul-22 22:58N 05°34' E 100°04'1 0.2
2017-Jul-22 18:58N 05°35' E 100°04'6 6.1
2017-Jul-22 18:00N 05°30' E 100°00'719.9 100 / 5 29.026.331.0
2017-Jul-22 17:40N 05°35' E 100°04'0 0.3
2017-Jul-22 17:25N 05°35' E 100°04'0 0.5
2017-Jul-22 17:00N 05°35' E 100°04'1 0.4
2017-Jul-22 15:42N 05°36' E 100°05'0 0.9
2017-Jul-22 15:18N 05°36' E 100°05'2 5.4
2017-Jul-22 15:00N 05°36' E 100°07'9 8.8
2017-Jul-22 13:59N 05°34' E 100°15'611.7
2017-Jul-22 13:30N 05°30' E 100°20'510.4
2017-Jul-22 13:00N 05°25' E 100°21'0 0.2
2017-Jul-22 12:28N 05°25' E 100°21'3 6.3
2017-Jul-22 12:00N 05°24' E 100°18'3126.9 230 / 131009.0 2.2 30.026.0
2017-Jul-22 11:58N 05°25' E 100°21'0 0.0
2017-Jul-22 06:46N 05°25' E 100°21'3 3.9
2017-Jul-22 06:00N 05°24' E 100°18'3 4.1 220 / 191010.0 1.1 33.027.8
2017-Jul-22 05:16N 05°25' E 100°21'0 0.0
2017-Jul-22 04:18N 05°25' E 100°21'0 0.0
2017-Jul-22 03:48N 05°25' E 100°21'0 0.0
2017-Jul-22 03:18N 05°25' E 100°21'0 0.0
2017-Jul-22 03:00N 05°25' E 100°21'1 2.2
2017-Jul-22 02:28N 05°26' E 100°21'611.9
2017-Jul-22 02:00N 05°31' E 100°18'611.8
2017-Jul-22 01:29N 05°35' E 100°13'612.4
2017-Jul-22 01:00N 05°36' E 100°08'2 4.6
2017-Jul-22 00:30N 05°36' E 100°05'815.3
2017-Jul-22 00:00N 05°30' E 100°00'717.1 120 / 81008.0 5.4 29.026.330.0
2017-Jul-21 23:35N 05°35' E 100°05'1 1.3
2017-Jul-21 23:12N 05°34' E 100°05'1 0.3
2017-Jul-21 18:38N 05°33' E 100°05'6 9.0
2017-Jul-21 18:00N 05°30' E 100°00'8 3.0 310 / 8 29.026.331.0
2017-Jul-21 15:24N 05°36' E 100°04'2 4.4
2017-Jul-21 15:00N 05°37' E 100°06'6 7.7
2017-Jul-21 14:13N 05°36' E 100°12'312.0
2017-Jul-21 14:00N 05°34' E 100°14'611.6
2017-Jul-21 13:30N 05°31' E 100°19'611.1
2017-Jul-21 13:00N 05°26' E 100°21'0 0.9
2017-Jul-21 12:30N 05°25' E 100°21'0 0.0
2017-Jul-21 12:00N 05°25' E 100°21'3340.7
2017-Jul-21 12:00N 05°24' E 100°18'3 6.2 210 / 51009.0 2.2 31.029.7
2017-Jul-21 11:30N 05°25' E 100°21'0 0.0
2017-Jul-21 11:00N 05°25' E 100°21'0 0.0
2017-Jul-21 10:30N 05°25' E 100°21'0 0.0
2017-Jul-21 10:00N 05°25' E 100°21'0 0.0
2017-Jul-21 09:30N 05°25' E 100°21'0 0.0
2017-Jul-21 09:00N 05°25' E 100°21'0 0.0
2017-Jul-21 08:30N 05°25' E 100°21'0 0.0
2017-Jul-21 08:00N 05°25' E 100°21'0 0.0
2017-Jul-21 07:26N 05°25' E 100°21'0 0.0
2017-Jul-21 06:56N 05°25' E 100°21'0 0.0
2017-Jul-21 06:26N 05°25' E 100°21'3 6.9
2017-Jul-21 06:00N 05°24' E 100°18'351.9 220 / 81009.0 5.4 32.029.430.0
2017-Jul-21 05:56N 05°25' E 100°21'0 0.0
2017-Jul-21 05:27N 05°25' E 100°21'0 0.0
2017-Jul-21 04:55N 05°25' E 100°21'0 0.0
2017-Jul-21 04:25N 05°25' E 100°21'0 0.0
2017-Jul-21 03:56N 05°25' E 100°21'1 1.3
2017-Jul-21 03:30N 05°26' E 100°21'612.0
2017-Jul-21 03:01N 05°31' E 100°19'611.3
2017-Jul-21 02:31N 05°35' E 100°14'611.3
2017-Jul-21 02:00N 05°37' E 100°09'1411.7
2017-Jul-21 00:49N 05°45' E 099°57'1618.8
2017-Jul-21 00:00N 05°48' E 099°42'7212.0 230 / 71008.0 5.4 29.026.330.0
2017-Jul-20 18:00N 06°42' E 098°54'7212.1 280 / 14 28.028.031.0
2017-Jul-20 12:00N 07°48' E 098°24'0 0.0 290 / 141008.0 2.2 29.027.7
2017-Jul-20 06:00N 07°48' E 098°24'38 6.3 280 / 121009.0 5.4 32.029.430.0
2017-Jul-20 00:00N 07°12' E 098°36'8113.6 280 / 161008.0 5.4 29.026.329.0
2017-Jul-19 18:00N 06°06' E 099°24'4815.9 340 / 8 29.029.031.0
2017-Jul-19 15:00N 05°40' E 100°04'1113.3
2017-Jul-19 14:10N 05°35' E 100°14'212.0
2017-Jul-19 14:00N 05°34' E 100°15'611.4
2017-Jul-19 13:30N 05°30' E 100°20'5 9.6
2017-Jul-19 13:00N 05°25' E 100°21'0 0.0
2017-Jul-19 12:25N 05°25' E 100°21'3 7.2
2017-Jul-19 12:00N 05°24' E 100°18'337.9 170 / 51008.0 2.2 30.028.7
2017-Jul-19 11:55N 05°25' E 100°21'0 0.0
2017-Jul-19 11:25N 05°25' E 100°21'0 0.0
2017-Jul-19 10:55N 05°25' E 100°21'0 0.0
2017-Jul-19 10:25N 05°25' E 100°21'0 0.0
2017-Jul-19 09:49N 05°25' E 100°21'0 0.0
2017-Jul-19 09:25N 05°25' E 100°21'0 0.0
2017-Jul-19 08:55N 05°25' E 100°21'0 0.0
2017-Jul-19 08:25N 05°25' E 100°21'0 0.0
2017-Jul-19 07:55N 05°25' E 100°21'0 0.0
2017-Jul-19 07:25N 05°25' E 100°21'0 0.0
2017-Jul-19 06:55N 05°25' E 100°21'0 0.0
2017-Jul-19 06:25N 05°25' E 100°21'3 7.2
2017-Jul-19 06:00N 05°24' E 100°18'338.1 210 / 101009.0 5.4 32.029.430.0
2017-Jul-19 05:55N 05°25' E 100°21'0 0.0
2017-Jul-19 05:29N 05°25' E 100°21'0 0.0
2017-Jul-19 04:57N 05°25' E 100°21'0 0.0
2017-Jul-19 04:27N 05°25' E 100°21'0 0.0
2017-Jul-19 04:00N 05°25' E 100°21'1 1.9
2017-Jul-19 03:30N 05°26' E 100°21'611.2
2017-Jul-19 03:00N 05°31' E 100°19'611.6
2017-Jul-19 02:30N 05°35' E 100°14'510.4
2017-Jul-19 02:00N 05°37' E 100°09'4 8.6
2017-Jul-19 01:28N 05°40' E 100°06'11 8.2
2017-Jul-19 00:09N 05°46' E 099°56'1 8.5
2017-Jul-18 23:59N 05°46' E 099°55'7 7.3
2017-Jul-18 23:00N 05°48' E 099°48'6412.7 210 / 101009.0 5.4 28.026.728.0
2017-Jul-18 18:00N 06°30' E 099°00'6611.0 200 / 5 29.029.031.0
2017-Jul-18 12:00N 07°36' E 098°54'19 3.2 260 / 41009.0 5.4 28.028.029.0
2017-Jul-18 06:00N 07°54' E 098°48'8 1.4 180 / 51008.0 5.4 32.029.430.0
2017-Jul-18 00:00N 07°48' E 098°42'17 2.8 180 / 61008.0 5.4 30.027.430.0
2017-Jul-17 18:00N 07°36' E 098°30'13 1.1 230 / 14 29.029.031.0
2017-Jul-17 06:00N 07°48' E 098°24'38 6.3 260 / 101008.0 5.4 32.029.430.0
2017-Jul-17 00:00N 07°12' E 098°36'   220 / 111008.0 5.4 28.025.330.0

Dump ship's entire track history